Meteo Giornale » Osservazioni meteo Colombia » San Andres Isla-Sesquicentenario
ore: 01:00 - Osservazioni Meteo San Andres Isla-Sesquicentenario
Lat. 12° 35' N Lon. 81° 43' W Alt. 1 metri s.l.m.
28 °C
Sereno
Temp. 24 Ore
28 °C
31 °C
Nord-Est
16.7 Km/h
Dew point 26 °C
Umidità 88 %
Visibilità 10 Km
Il sole sorge alle ore 06:16
Il sole tramonta alle ore 18:37
| Data e Ora | Cielo e Fenomeni | T °C | DP °C | Um. % | Pres. hPa | Vis. km | Vento km/h | |
|---|---|---|---|---|---|---|---|---|
| Oggi h: 01:00 | Sereno | 28 | 26 | 88 | 1012 | 10 | NE 16.7 | |
| Oggi h: 00:00 | Sereno | 28 | 26 | 88 | 1013 | 10 | NE 14.8 | |
| Ieri h: 23:00 | Sereno | 28 | 26 | 88 | 1013 | 10 | NE 16.7 | |
| Ieri h: 22:00 | Sereno | 28 | 26 | 88 | 1013 | 10 | NE 16.7 | |
| Ieri h: 21:00 | Pioggia | 29 | 26 | 83 | 1012 | 10 | NE 9.3 | |
| Ieri h: 20:00 | Sereno | 29 | 26 | 83 | 1012 | 10 | NE 9.3 | |
| Ieri h: 19:00 | Sereno | 29 | 25 | 79 | 1011 | 10 | NE 13 | |
| Ieri h: 18:00 | Poco Nuvoloso | 30 | 26 | 79 | 1011 | 10 | E/NE 14.8 | |
| Ieri h: 17:00 | Poco Nuvoloso | 30 | 26 | 79 | 1011 | 10 | E/NE 18.5 | |
| Ieri h: 16:00 | Sereno | 31 | 26 | 74 | 1011 | 10 | E/NE 16.7 | |
| Ieri h: 15:00 | Nuvoloso | 30 | 27 | 84 | 1011 | 10 | E/NE 14.8 | |
| Ieri h: 14:00 | Nuvoloso | 31 | 26 | 74 | 1012 | 10 | E/NE 20.3 | |
| Ieri h: 13:00 | Nuvoloso | 30 | 26 | 79 | 1012 | 10 | E/NE 18.5 | |
| Ieri h: 12:00 | Nuvoloso | 31 | 26 | 74 | 1013 | 10 | E/NE 20.3 | |
| Ieri h: 11:00 | Nuvoloso | 31 | 26 | 74 | 1013 | 10 | E/NE 14.8 | |
| Ieri h: 10:00 | Nuvoloso | 31 | 26 | 74 | 1013 | 10 | E/NE 16.7 | |
| Ieri h: 09:00 | Nuvoloso | 30 | 26 | 79 | 1012 | 10 | E/NE 20.3 | |
| Ieri h: 08:00 | Nuvoloso | 29 | 26 | 83 | 1012 | 10 | NE 18.5 | |
| Ieri h: 07:00 | Nuvoloso | 28 | 25 | 83 | 1011 | 10 | E/NE 16.7 | |
| Ieri h: 06:15 | Poco Nuvoloso | 28 | 25 | 83 | 1011 | 10 | E/NE 14.8 | |
| Ieri h: 06:00 | Sereno | 28 | 25 | 83 | 1011 | 10 | E/NE 14.8 | |
| Ieri h: 05:00 | Sereno | 28 | 25 | 83 | 1010 | 10 | E/NE 11.1 | |
| Ieri h: 04:00 | Molto Nuvoloso | 28 | 26 | 88 | 1011 | 10 | E/NE 11.1 | |
| Ieri h: 03:00 | Sereno | 28 | 26 | 88 | 1010 | 10 | E 11.1 | |



